Overview Statistics Trail Chart Weather Telemetry Raw packets
 

This is the latest recevied weather packets stored in our database for station/object AI5BL. If no packets are shown the sender has not sent any weather packets the latest 10 day(s).

<< 91 92 93 94 95 96 97 >>
Time Temp. Humidity Pressure Rain* Wind** Luminosity Snow
1787971260 25.56° C 84% 1018.8 hPa 0 mm - 0 W/m² -
1787970960 25.56° C 85% 1018.8 hPa 0 mm - 0 W/m² -
1787970656 26.11° C 84% 1018.5 hPa 0 mm - 0 W/m² -
1787970355 25.56° C 83% 1018.6 hPa 0 mm - 0 W/m² -
1787970054 25° C 88% 1018.5 hPa 0 mm - 0 W/m² -
1787969753 25° C 88% 1018.5 hPa 0 mm - 0 W/m² -
1787969452 24.44° C 90% 1018.4 hPa 0 mm - 0 W/m² -
1787969152 24.44° C 90% 1018.4 hPa 0 mm - 0 W/m² -
1787968847 25° C 89% 1018.3 hPa 0 mm - 0 W/m² -
1787968545 25° C 89% 1018.3 hPa 0 mm - 0 W/m² -
1787968241 25° C 88% 1018.2 hPa 0 mm - 0 W/m² -
1787967937 25° C 87% 1018.1 hPa 0 mm - 0 W/m² -
1787967633 25.56° C 87% 1018.1 hPa 0 mm - 0 W/m² -
1787967332 25.56° C 86% 1018 hPa 0 mm - 0 W/m² -
1787967029 25.56° C 85% 1018.1 hPa 0 mm - 0 W/m² -
1787966725 26.11° C 85% 1017.6 hPa 0 mm - 0 W/m² -
1787966420 26.11° C 82% 1017.5 hPa 0 mm - 0 W/m² -
1787966120 26.67° C 83% 1017.4 hPa 0 mm - 0 W/m² -
1787965820 26.67° C 83% 1017.4 hPa 0 mm - 0 W/m² -
1787965520 26.67° C 81% 1017.6 hPa 0 mm - 0 W/m² -
1787965215 26.67° C 81% 1017.5 hPa 0 mm - 0 W/m² -
1787964909 27.22° C 81% 1017.4 hPa 0 mm - 0 W/m² -
1787964604 27.22° C 80% 1017.3 hPa 0 mm - 0 W/m² -
1787964298 27.78° C 78% 1017.2 hPa 0 mm - 0 W/m² -
1787963997 28.33° C 78% 1017.3 hPa 0 mm - 0 W/m² -

* Rain latest hour (hover to see other rain measurements)
** Current wind speed in m/s (hover to see current wind gust speed)